| time (UTC) | temp F | wind direction | speed MPH | gust MPH | rain 1hr in | rain 24hr in | rain mn in | humidity % | barometer mb |
| 20260504050332 | 56 | 127 | 0.0 | 0.0 | 0.00 | 0.13 | 0.00 | 1 | 1011.9 |
| 20260504045817 | 56 | 111 | 0.0 | 0.0 | 0.00 | 0.13 | 0.00 | 1 | 1011.8 |
| 20260504045319 | 56 | 111 | 0.0 | 0.0 | 0.00 | 0.13 | 0.00 | 1 | 1011.9 |
| 20260504044814 | 56 | 110 | 0.0 | 0.0 | 0.00 | 0.13 | 0.00 | 1 | 1011.8 |
| 20260504044546 | 56 | 116 | 0.0 | 0.0 | 0.00 | 0.13 | 0.00 | 1 | 1011.7 |
| 20260504044036 | 56 | 118 | 0.0 | 0.0 | 0.00 | 0.13 | 0.00 | 1 | 1011.8 |
| 20260504043318 | 56 | 127 | 0.0 | 0.0 | 0.00 | 0.13 | 0.00 | 1 | 1011.7 |
| 20260504043030 | 56 | 139 | 0.0 | 0.0 | 0.00 | 0.13 | 0.00 | 1 | 1011.9 |
| 20260504042308 | 56 | 131 | 0.0 | 0.0 | 0.00 | 0.13 | 0.00 | 1 | 1011.9 |
| 20260504041808 | 56 | 131 | 0.0 | 0.0 | 0.00 | 0.13 | 0.00 | 1 | 1011.8 |
| 20260504041307 | 56 | 131 | 0.0 | 1.0 | 0.00 | 0.13 | 0.00 | 1 | 1011.7 |
| 20260504040807 | 56 | 131 | 0.0 | 1.0 | 0.00 | 0.13 | 0.00 | 1 | 1011.8 |
| 20260504040308 | 56 | 294 | 0.0 | 0.0 | 0.00 | 0.13 | 0.00 | 1 | 1011.7 |
| 20260504035812 | 57 | 294 | 0.0 | 0.0 | 0.00 | 0.13 | 0.00 | 1 | 1011.7 |
| 20260504035309 | 57 | 294 | 0.0 | 0.0 | 0.00 | 0.13 | 0.00 | 1 | 1011.7 |
| 20260504034812 | 57 | 294 | 0.0 | 0.0 | 0.00 | 0.13 | 0.00 | 1 | 1011.7 |
| 20260504034310 | 57 | 294 | 0.0 | 0.0 | 0.00 | 0.14 | 0.00 | 1 | 1011.7 |
| 20260504034036 | 57 | 294 | 0.0 | 0.0 | 0.00 | 0.15 | 0.00 | 1 | 1011.7 |
| 20260504033308 | 57 | 294 | 0.0 | 0.0 | 0.00 | 0.15 | 0.00 | 1 | 1011.7 |
| 20260504032809 | 57 | 294 | 0.0 | 0.0 | 0.00 | 0.15 | 0.00 | 1 | 1011.7 |
| 20260504032311 | 57 | 294 | 0.0 | 0.0 | 0.00 | 0.15 | 0.00 | 1 | 1011.8 |
| 20260504031809 | 57 | 294 | 0.0 | 0.0 | 0.00 | 0.15 | 0.00 | 1 | 1011.8 |
| 20260504031308 | 57 | 294 | 0.0 | 0.0 | 0.00 | 0.15 | 0.00 | 1 | 1011.9 |
| 20260504030809 | 57 | 294 | 0.0 | 0.0 | 0.00 | 0.15 | 0.00 | 1 | 1011.9 |
| 20260504030531 | 57 | 294 | 0.0 | 0.0 | 0.00 | 0.15 | 0.00 | 1 | 1011.9 |
| 20260504030027 | 57 | 294 | 0.0 | 0.0 | 0.00 | 0.15 | 0.00 | 1 | 1011.9 |
| 20260504025258 | 57 | 294 | 0.0 | 0.0 | 0.00 | 0.15 | 0.00 | 1 | 1011.8 |
| 20260504024752 | 56 | 294 | 0.0 | 0.0 | 0.00 | 0.16 | 0.00 | 1 | 1011.7 |
| 20260504024245 | 56 | 294 | 0.0 | 0.0 | 0.00 | 0.17 | 0.00 | 1 | 1011.8 |
| 20260504023741 | 56 | 294 | 0.0 | 0.0 | 0.00 | 0.17 | 0.00 | 1 | 1011.8 |
| 20260504023236 | 56 | 294 | 0.0 | 0.0 | 0.00 | 0.17 | 0.00 | 1 | 1011.9 |
| 20260504022727 | 56 | 294 | 0.0 | 0.0 | 0.00 | 0.17 | 0.00 | 1 | 1011.7 |
| 20260504022221 | 56 | 294 | 0.0 | 0.0 | 0.00 | 0.17 | 0.00 | 1 | 1011.7 |
| 20260504021939 | 56 | 294 | 0.0 | 0.0 | 0.00 | 0.17 | 0.00 | 1 | 1011.7 |
| 20260504021208 | 56 | 294 | 0.0 | 0.0 | 0.00 | 0.17 | 0.00 | 1 | 1011.7 |
| 20260504020703 | 56 | 294 | 0.0 | 0.0 | 0.00 | 0.17 | 0.00 | 1 | 1011.7 |
| 20260504020155 | 56 | 294 | 0.0 | 0.0 | 0.00 | 0.17 | 0.00 | 1 | 1011.8 |
| 20260504015648 | 56 | 294 | 0.0 | 0.0 | 0.00 | 0.17 | 0.00 | 1 | 1011.8 |
| 20260504015142 | 56 | 294 | 0.0 | 0.0 | 0.00 | 0.17 | 0.00 | 1 | 1011.7 |
| 20260504014637 | 56 | 294 | 0.0 | 0.0 | 0.00 | 0.17 | 0.00 | 1 | 1011.8 |
| 20260504014129 | 56 | 294 | 0.0 | 1.0 | 0.00 | 0.17 | 0.00 | 1 | 1011.8 |
| 20260504013847 | 56 | 294 | 0.0 | 2.0 | 0.00 | 0.17 | 0.00 | 1 | 1011.8 |
| 20260504013118 | 55 | 299 | 0.0 | 2.0 | 0.00 | 0.17 | 0.00 | 1 | 1011.8 |
| 20260504012612 | 55 | 299 | 0.0 | 1.0 | 0.00 | 0.17 | 0.00 | 1 | 1011.8 |
| 20260504012105 | 55 | 300 | 0.0 | 0.0 | 0.00 | 0.17 | 0.00 | 1 | 1011.8 |
| 20260504011617 | 55 | 300 | 0.0 | 0.0 | 0.00 | 0.17 | 0.00 | 1 | 1011.7 |
| 20260504011600 | 55 | 300 | 0.0 | 0.0 | 0.00 | 0.17 | 0.00 | 1 | 1011.8 |
| 20260504010559 | 55 | 300 | 0.0 | 0.0 | 0.00 | 0.17 | 0.00 | 1 | 1011.7 |
| 20260504010317 | 55 | 300 | 0.0 | 0.0 | 0.00 | 0.17 | 0.00 | 1 | 1011.7 |
| 20260504005759 | 55 | 300 | 0.0 | 0.0 | 0.00 | 0.17 | 0.00 | 1 | 1011.7 |
| 20260504005030 | 55 | 300 | 0.0 | 0.0 | 0.00 | 0.17 | 0.00 | 1 | 1011.7 |
| 20260504004750 | 55 | 300 | 0.0 | 0.0 | 0.00 | 0.17 | 0.00 | 1 | 1011.7 |
| 20260504004020 | 56 | 300 | 0.0 | 0.0 | 0.00 | 0.17 | 0.00 | 1 | 1011.7 |
| 20260504003514 | 56 | 300 | 0.0 | 0.0 | 0.00 | 0.17 | 0.00 | 1 | 1011.7 |
| 20260504003229 | 56 | 300 | 0.0 | 0.0 | 0.00 | 0.17 | 0.00 | 1 | 1011.7 |
| 20260504002500 | 56 | 300 | 0.0 | 0.0 | 0.00 | 0.17 | 0.00 | 1 | 1011.7 |
| 20260504002216 | 56 | 300 | 0.0 | 0.0 | 0.00 | 0.17 | 0.00 | 1 | 1011.7 |
| 20260504001447 | 56 | 300 | 0.0 | 0.0 | 0.00 | 0.17 | 0.00 | 1 | 1011.7 |
| 20260504000941 | 56 | 300 | 0.0 | 0.0 | 0.00 | 0.17 | 0.00 | 1 | 1011.7 |
| 20260504000434 | 56 | 300 | 0.0 | 0.0 | 0.00 | 0.17 | 0.00 | 1 | 1011.7 |
| 20260503235929 | 56 | 300 | 0.0 | 0.0 | 0.00 | 0.17 | 0.00 | 1 | 1011.8 |
| 20260503235424 | 56 | 300 | 0.0 | 0.0 | 0.00 | 0.17 | 0.00 | 1 | 1011.7 |
| 20260503234917 | 56 | 300 | 0.0 | 0.0 | 0.00 | 0.17 | 0.00 | 1 | 1011.7 |
| 20260503234412 | 57 | 300 | 0.0 | 0.0 | 0.00 | 0.17 | 0.00 | 1 | 1011.7 |
| 20260503233905 | 57 | 300 | 0.0 | 0.0 | 0.00 | 0.17 | 0.00 | 1 | 1011.7 |
| 20260503233359 | 57 | 300 | 0.0 | 0.0 | 0.00 | 0.17 | 0.00 | 1 | 1011.7 |
| 20260503232854 | 57 | 300 | 0.0 | 0.0 | 0.00 | 0.17 | 0.00 | 1 | 1011.7 |
| 20260503232612 | 57 | 300 | 0.0 | 0.0 | 0.00 | 0.17 | 0.00 | 1 | 1011.7 |
| 20260503231841 | 57 | 300 | 0.0 | 0.0 | 0.00 | 0.17 | 0.00 | 1 | 1011.7 |
| 20260503231335 | 57 | 300 | 0.0 | 1.0 | 0.00 | 0.17 | 0.00 | 1 | 1011.8 |
| 20260503230830 | 57 | 301 | 0.0 | 1.0 | 0.00 | 0.19 | 0.00 | 1 | 1011.8 |
| 20260503230547 | 57 | 262 | 0.0 | 1.0 | 0.00 | 0.22 | 0.00 | 1 | 1011.7 |
| 20260503225819 | 57 | 262 | 0.0 | 1.0 | 0.00 | 0.24 | 0.00 | 1 | 1011.7 |
| 20260503225311 | 57 | 248 | 0.0 | 3.0 | 0.00 | 0.26 | 0.00 | 1 | 1011.7 |
| 20260503224812 | 57 | 286 | 0.0 | 3.0 | 0.00 | 0.28 | 0.00 | 1 | 1011.7 |
| 20260503224527 | 58 | 281 | 0.0 | 1.0 | 0.00 | 0.31 | 0.00 | 1 | 1011.7 |
| 20260503223753 | 58 | 276 | 0.0 | 2.0 | 0.00 | 0.33 | 0.00 | 1 | 1011.6 |
| 20260503223504 | 58 | 276 | 0.0 | 2.0 | 0.00 | 0.35 | 0.00 | 1 | 1011.6 |
| 20260503222741 | 58 | 270 | 0.0 | 1.0 | 0.00 | 0.35 | 0.00 | 1 | 1011.5 |
| 20260503222713 | 58 | 278 | 0.0 | 1.0 | 0.00 | 0.36 | 0.00 | 1 | 1011.5 |
| 20260503221729 | 58 | 245 | 0.0 | 1.0 | 0.00 | 0.36 | 0.00 | 1 | 1011.5 |
| 20260503221225 | 58 | 245 | 0.0 | 1.0 | 0.00 | 0.38 | 0.00 | 1 | 1011.5 |
| 20260503220718 | 58 | 273 | 0.0 | 1.0 | 0.00 | 0.38 | 0.00 | 1 | 1011.5 |
| 20260503220211 | 58 | 272 | 0.0 | 1.0 | 0.00 | 0.38 | 0.00 | 1 | 1011.4 |
| 20260503215706 | 58 | 275 | 0.0 | 2.0 | 0.00 | 0.38 | 0.38 | 1 | 1011.4 |
| 20260503215159 | 58 | 267 | 0.0 | 2.0 | 0.00 | 0.38 | 0.38 | 1 | 1011.4 |
| 20260503214654 | 58 | 250 | 0.0 | 2.0 | 0.00 | 0.38 | 0.38 | 1 | 1011.4 |
| 20260503214147 | 58 | 290 | 0.0 | 2.0 | 0.00 | 0.38 | 0.38 | 1 | 1011.4 |
| 20260503213641 | 58 | 290 | 0.0 | 3.0 | 0.00 | 0.38 | 0.38 | 1 | 1011.4 |
| 20260503213134 | 59 | 289 | 1.0 | 3.0 | 0.00 | 0.38 | 0.38 | 1 | 1011.5 |
| 20260503212628 | 59 | 270 | 1.0 | 4.0 | 0.00 | 0.38 | 0.38 | 1 | 1011.5 |
| 20260503212125 | 59 | 285 | 1.0 | 4.0 | 0.00 | 0.38 | 0.38 | 1 | 1011.4 |
| 20260503211616 | 59 | 288 | 1.0 | 3.0 | 0.00 | 0.38 | 0.38 | 1 | 1011.5 |
| 20260503211339 | 59 | 292 | 0.0 | 3.0 | 0.00 | 0.38 | 0.38 | 1 | 1011.4 |
| 20260503210606 | 59 | 295 | 0.0 | 2.0 | 0.00 | 0.38 | 0.38 | 1 | 1011.5 |
| 20260503210107 | 59 | 296 | 0.0 | 2.0 | 0.00 | 0.38 | 0.38 | 1 | 1011.4 |
| 20260503205555 | 59 | 297 | 0.0 | 1.0 | 0.00 | 0.38 | 0.38 | 1 | 1011.3 |
| 20260503205047 | 59 | 297 | 0.0 | 1.0 | 0.00 | 0.38 | 0.38 | 1 | 1011.2 |
| 20260503204543 | 59 | 297 | 0.0 | 0.0 | 0.00 | 0.38 | 0.38 | 1 | 1011.2 |
| 20260503204035 | 60 | 297 | 0.0 | 0.0 | 0.00 | 0.38 | 0.38 | 1 | 1011.1 |
| 20260503204025 | 60 | 297 | 0.0 | 0.0 | 0.00 | 0.38 | 0.38 | 1 | 1011.1 |
| 20260503203023 | 60 | 297 | 0.0 | 1.0 | 0.00 | 0.38 | 0.38 | 1 | 1011.2 |
| 20260503202520 | 60 | 297 | 0.0 | 1.0 | 0.00 | 0.38 | 0.38 | 1 | 1011.2 |
| 20260503202014 | 60 | 297 | 0.0 | 1.0 | 0.00 | 0.38 | 0.38 | 1 | 1011.2 |
| 20260503201515 | 60 | 297 | 0.0 | 1.0 | 0.00 | 0.38 | 0.38 | 1 | 1011.2 |
| 20260503200957 | 60 | 297 | 0.0 | 0.0 | 0.00 | 0.38 | 0.38 | 1 | 1011.2 |
| 20260503200719 | 60 | 297 | 0.0 | 0.0 | 0.00 | 0.38 | 0.38 | 1 | 1011.1 |
| 20260503200212 | 60 | 297 | 0.0 | 0.0 | 0.00 | 0.38 | 0.38 | 1 | 1011.1 |
| 20260503195438 | 60 | 297 | 0.0 | 0.0 | 0.00 | 0.38 | 0.38 | 1 | 1011.0 |
| 20260503195159 | 60 | 297 | 0.0 | 0.0 | 0.00 | 0.38 | 0.38 | 1 | 1010.9 |
| 20260503194427 | 60 | 297 | 0.0 | 0.0 | 0.00 | 0.38 | 0.38 | 1 | 1010.8 |
| 20260503193922 | 60 | 297 | 0.0 | 0.0 | 0.00 | 0.38 | 0.38 | 1 | 1010.8 |
| 20260503193413 | 60 | 297 | 0.0 | 0.0 | 0.00 | 0.38 | 0.38 | 1 | 1010.8 |
| 20260503192908 | 60 | 297 | 0.0 | 0.0 | 0.00 | 0.38 | 0.38 | 1 | 1010.8 |
| 20260503192403 | 60 | 297 | 0.0 | 0.0 | 0.00 | 0.38 | 0.38 | 1 | 1010.8 |
| 20260503191856 | 60 | 297 | 0.0 | 0.0 | 0.00 | 0.38 | 0.38 | 1 | 1010.7 |
| 20260503191356 | 60 | 297 | 0.0 | 0.0 | 0.00 | 0.38 | 0.38 | 1 | 1010.7 |
| 20260503190851 | 60 | 297 | 0.0 | 0.0 | 0.00 | 0.38 | 0.38 | 1 | 1010.6 |
| 20260503190350 | 60 | 297 | 0.0 | 0.0 | 0.00 | 0.38 | 0.38 | 1 | 1010.6 |
| 20260503185851 | 60 | 297 | 0.0 | 0.0 | 0.00 | 0.38 | 0.38 | 1 | 1010.5 |
| 20260503185349 | 60 | 297 | 0.0 | 0.0 | 0.00 | 0.38 | 0.38 | 1 | 1010.5 |
| 20260503184848 | 60 | 297 | 0.0 | 0.0 | 0.00 | 0.38 | 0.38 | 1 | 1010.5 |
| 20260503184609 | 60 | 297 | 0.0 | 1.0 | 0.00 | 0.38 | 0.38 | 1 | 1010.4 |
| 20260503183850 | 60 | 297 | 0.0 | 1.0 | 0.00 | 0.38 | 0.38 | 1 | 1010.4 |
| 20260503183347 | 60 | 253 | 0.0 | 3.0 | 0.00 | 0.38 | 0.38 | 1 | 1010.3 |
| 20260503182844 | 60 | 253 | 1.0 | 3.0 | 0.00 | 0.38 | 0.38 | 1 | 1010.3 |
| 20260503182344 | 61 | 271 | 1.0 | 3.0 | 0.00 | 0.38 | 0.38 | 1 | 1010.3 |
| 20260503181843 | 61 | 287 | 1.0 | 3.0 | 0.00 | 0.38 | 0.38 | 1 | 1010.2 |
| 20260503181344 | 61 | 279 | 1.0 | 3.0 | 0.00 | 0.38 | 0.38 | 1 | 1010.1 |
| 20260503181118 | 61 | 269 | 1.0 | 4.0 | 0.00 | 0.38 | 0.38 | 1 | 1010.0 |
| 20260503180343 | 62 | 293 | 1.0 | 4.0 | 0.00 | 0.38 | 0.38 | 1 | 1009.9 |
| 20260503175842 | 62 | 314 | 1.0 | 4.0 | 0.00 | 0.38 | 0.38 | 1 | 1009.9 |
| 20260503175337 | 62 | 290 | 1.0 | 4.0 | 0.00 | 0.38 | 0.38 | 1 | 1009.8 |
| 20260503174838 | 62 | 284 | 2.0 | 6.0 | 0.00 | 0.38 | 0.38 | 1 | 1009.9 |
| 20260503174341 | 62 | 277 | 1.0 | 6.0 | 0.00 | 0.38 | 0.38 | 1 | 1009.8 |
| 20260503173835 | 62 | 271 | 1.0 | 5.0 | 0.00 | 0.38 | 0.38 | 1 | 1009.9 |
| 20260503173330 | 61 | 293 | 2.0 | 7.0 | 0.00 | 0.38 | 0.38 | 1 | 1009.9 |
| 20260503172824 | 61 | 286 | 2.0 | 7.0 | 0.00 | 0.38 | 0.38 | 1 | 1009.9 |
| 20260503172320 | 61 | 282 | 1.0 | 6.0 | 0.00 | 0.38 | 0.38 | 1 | 1009.9 |
| 20260503171821 | 61 | 286 | 2.0 | 6.0 | 0.00 | 0.38 | 0.38 | 1 | 1009.9 |
| 20260503171319 | 61 | 300 | 2.0 | 6.0 | 0.00 | 0.38 | 0.38 | 1 | 1009.9 |
| 20260503171042 | 62 | 281 | 2.0 | 6.0 | 0.00 | 0.38 | 0.38 | 1 | 1009.9 |
| 20260503170319 | 62 | 293 | 2.0 | 6.0 | 0.00 | 0.38 | 0.38 | 1 | 1009.9 |
| 20260503150805 | 62 | 305 | 1.0 | 6.0 | 0.00 | 0.38 | 0.38 | 1 | 1009.9 |
| 20260503150307 | 62 | 297 | 1.0 | 5.0 | 0.00 | 0.38 | 0.38 | 1 | 1009.9 |
| 20260503140304 | 62 | 265 | 1.0 | 5.0 | 0.00 | 0.38 | 0.38 | 1 | 1010.1 |
| 20260503131228 | 61 | 289 | 1.0 | 5.0 | 0.01 | 0.38 | 0.38 | 1 | 1010.5 |
| 20260503130948 | 60 | 288 | 1.0 | 6.0 | 0.01 | 0.38 | 0.38 | 1 | 1010.5 |
| 20260503130222 | 60 | 284 | 1.0 | 6.0 | 0.02 | 0.38 | 0.38 | 1 | 1010.6 |
| 20260503120216 | 60 | 298 | 1.0 | 4.0 | 0.02 | 0.36 | 0.36 | 1 | 1010.7 |
| 20260503110633 | 60 | 287 | 2.0 | 6.0 | 0.07 | 0.34 | 0.34 | 1 | 1010.7 |
| 20260503110127 | 61 | 275 | 2.0 | 6.0 | 0.07 | 0.34 | 0.34 | 1 | 1010.8 |
| 20260503090410 | 63 | 217 | 1.0 | 5.0 | 0.00 | 0.27 | 0.27 | 1 | 1010.5 |
| 20260503081528 | 61 | 105 | 1.0 | 5.0 | 0.00 | 0.27 | 0.27 | 1 | 1010.5 |
| 20260503080803 | 61 | 271 | 1.0 | 4.0 | 0.00 | 0.27 | 0.27 | 1 | 1010.4 |
| 20260503080257 | 61 | 101 | 1.0 | 3.0 | 0.01 | 0.27 | 0.27 | 1 | 1010.4 |
| 20260503072715 | 59 | 124 | 0.0 | 2.0 | 0.02 | 0.27 | 0.27 | 1 | 1010.5 |
| 20260503072208 | 59 | 103 | 0.0 | 2.0 | 0.02 | 0.27 | 0.27 | 1 | 1010.5 |
| 20260503071756 | 59 | 127 | 1.0 | 4.0 | 0.02 | 0.27 | 0.27 | 1 | 1010.4 |
| 20260503070655 | 59 | 102 | 1.0 | 3.0 | 0.01 | 0.26 | 0.27 | 1 | 1010.2 |
| 20260503070410 | 59 | 105 | 1.0 | 5.0 | 0.01 | 0.26 | 0.26 | 1 | 1010.3 |